TITAN 3C TRANSTAGE DEB, 33511

Orbit data source: Space-Track

TITAN 3C TRANSTAGE DEB, 33511 is space debris in GEO originally from a launch on Thu, 26 Sep 1968 UTC launched from the Air Force Eastern Test Range (AFETR). Debris objects in space refer to the collection of defunct objects orbiting the Earth. Examples of debris include non-operational satellites, rocket bodies, and fragments generated from explosions, collisions, or faulty payload assembly.

Not visible in the next 10 days
Identifier
33511, 1968-081M
Orbit
GEO
Country
Flag of USUS
Related business
Manufacturer
Unknown
Mission
Spacecraft
Bus & Motor
Unknown
Mass
Unknown
Launch date (UTC)
1968-09-26 (57 years ago)
Launch vehicle
Unknown
Launch site
Air Force Eastern Test Range (AFETR)
Object type
Payload
Rocket body
Debris
Shape & HBR
Unknown shape, 1.1 m
Radar Cross Section
Medium (>0.1 m² and <1 m²)

Expand to show TLE details & history
Last TLE update: 13 hours ago

TLE from 13 hours ago
0 TITAN 3C TRANSTAGE DEB
1 33511U 68081M   25292.12162988 -.00000138  00000-0  00000-0 0  9996
2 33511   1.3723  22.8417 0125468 306.1660  86.4070  1.00768435 64990
Epoch: 2025-10-19T02:55Z
TLE epoch observation values (Epoch: 2025-10-19T02:55:08.821Z)
Latitude
0.76081°
Longitude
-14.81066°
Altitude
35,617.882 km
Speed
3.082 km/s
True Right ascension
03h 47m 16s
True Declination
0° 45' 36"
Sunlit
Object was in daylight at epoch
Visualization orbit readout
Latitude
Unknown
Longitude
Unknown
Altitude
Unknown
Speed
Unknown
Apparent Right ascension
Unknown
Apparent Declination
Unknown
Sunlit
N/A
Visualization observer readout
Local Sidereal Time
10:30:03
Azimuth
Unknown
Elevation
Unknown
Doppler factor
Unknown
Orbital elements
Apogee altitude
36,176.317 km
Perigee altitude
35,121.705 km
Semi-major axis
42,027.148 km
Eccentricity
0.01255
Inclination
1.3723°
RAAN
22.8417°
Arg. of periapsis
306.166°
True anomaly
87.84319°
Mean anomaly
86.407°
Eccentric anomaly
87.12497°
Mean motion
0.25191 °/min
Orbital period
1,429.07 mins
BSTAR
0
Loading maneuver chart data...
Computing Atmospheric mass density...

Documentation

Showing up to 5 results
|